Flag for Japan Weather past 2 weeks in Yokohama, Japan

Now
66 °F

Fog.


Feels Like: 66 °F
Forecast: 60 / 71 °F
Wind: 10 mph from Northeast

Location: Tokyo International Airport

Current Time: Oct 22, 2014 at 4:56:26 AM

Latest Report: Oct 22, 2014 at 4:30 AM


Visibility: 4 mi

Pressure: 29.83 "Hg

Humidity: 88%

Dew point: 63 °F

Location of YokohamaLocation

Historic Weather in Yokohama — Graph

°F

Yokohama temperature yesterday

Maximum temperature yesterday: 72 °F (at 4:30 PM)
Minimum temperature yesterday: 63 °F (at 2:00 AM)
Average temperature yesterday: 67 °F

Past Weeks' High & Low Weather Summary

 TemperatureHumidityPressure
High81 °F (Oct 14, 10:00 AM)100% (Oct 13, 5:50 PM)30.36 "Hg (Oct 13, 5:50 PM)
Low57 °F (Oct 15, 5:00 PM)31% (Oct 17, 12:30 PM)29.06 "Hg (Oct 14, 3:00 AM)
Average66 °F69%30.05 "Hg
* Reported Oct 7 3:00 AM — Oct 22 3:30 AM, Yokohama, Weather by CustomWeather, © 2014

Note: Actual official high and low records may vary slightly from our data, if they occured in-between our weather recording intervals... More about our weather records

Advertising

Yokohama weather history for previous 24 hours

 ConditionsComfort  
Time TempWeatherWind HumidityBarometerVisibility
3:30 AM
Oct 22
72 °FPartly cloudy.9 mph73%29.80 "HgN/A
3:00 AM72 °FPartly cloudy.12 mph73%29.80 "HgN/A
2:30 AM72 °FPassing clouds.10 mph78%29.80 "HgN/A
2:00 AM72 °FPartly cloudy.17 mph78%29.80 "HgN/A
1:30 AM72 °FPartly cloudy.15 mph78%29.83 "HgN/A
1:00 AM72 °FPartly cloudy.18 mph78%29.83 "HgN/A
12:30 AM72 °FPartly cloudy.13 mph78%29.83 "HgN/A
12:00 AM72 °FPartly cloudy.17 mph78%29.83 "HgN/A
11:30 PM
Oct 21
72 °FPartly cloudy.7 mph78%29.86 "HgN/A
11:00 PM70 °FPartly cloudy.12 mph88%29.86 "HgN/A
10:30 PM70 °FPassing clouds.9 mph83%29.89 "HgN/A
10:00 PM72 °FPassing clouds.12 mph73%29.89 "HgN/A
9:30 PM70 °FPassing clouds.8 mph78%29.89 "HgN/A
9:00 PM70 °FPassing clouds.13 mph78%29.89 "HgN/A
8:30 PM72 °FPassing clouds.13 mph78%29.89 "HgN/A
8:00 PM70 °FPassing clouds.13 mph78%29.92 "HgN/A
7:30 PM70 °FPassing clouds.10 mph83%29.92 "HgN/A
7:00 PM70 °FPassing clouds.10 mph88%29.92 "HgN/A
6:30 PM70 °FPassing clouds.15 mph83%29.92 "HgN/A
6:00 PM70 °FPassing clouds.16 mph83%29.89 "HgN/A
5:30 PM70 °FPassing clouds.17 mph83%29.92 "HgN/A
5:00 PM70 °FPassing clouds.12 mph88%29.92 "HgN/A
4:30 PM72 °FBroken clouds.12 mph83%29.92 "HgN/A
4:00 PM70 °FPartly sunny.15 mph83%29.92 "HgN/A
3:30 PM70 °FPartly sunny.13 mph78%29.95 "HgN/A
3:00 PM70 °FPartly sunny.15 mph83%29.95 "HgN/A
2:30 PM70 °FPartly sunny.20 mph78%29.95 "HgN/A
2:00 PM68 °FPartly sunny.18 mph83%29.95 "HgN/A
1:30 PM68 °FBroken clouds.18 mph83%29.98 "HgN/A
1:00 PM68 °FBroken clouds.21 mph83%29.98 "HgN/A
12:30 PM66 °FBroken clouds.21 mph83%30.01 "HgN/A
12:00 PM68 °FLight rain. Broken clouds.21 mph88%30.01 "HgN/A
11:30 AM68 °FLight rain. Broken clouds.21 mph88%30.04 "Hg5 mi
11:00 AM68 °FLight rain. Broken clouds.21 mph88%30.04 "Hg4 mi
10:30 AM68 °FLight rain. Fog.13 mph88%30.07 "Hg3 mi
10:00 AM66 °FLight rain. Fog.10 mph94%30.07 "Hg3 mi
9:30 AM64 °FLight rain. Fog.2 mph94%30.09 "Hg2 mi
9:00 AM64 °FLight rain. Fog.2 mph88%30.09 "Hg3 mi
8:30 AM64 °FLight rain. Fog.2 mph88%30.09 "Hg4 mi
8:00 AM64 °FLight rain. Fog.3 mph88%30.09 "Hg4 mi
7:30 AM63 °FLight rain. Partly sunny.3 mph88%30.09 "Hg4 mi
7:00 AM63 °FLight rain. Broken clouds.3 mph88%30.09 "Hg5 mi
6:30 AM63 °FLight rain. Broken clouds.3 mph88%30.09 "Hg6 mi
6:00 AM63 °FScattered showers. Partly sunny.No wind88%30.09 "HgN/A
5:30 AM63 °FLight rain. Partly cloudy.2 mph88%30.09 "HgN/A
5:00 AM63 °FScattered showers. Partly cloudy.5 mph88%30.09 "HgN/A
4:30 AM63 °FLight rain. Partly cloudy.3 mph83%30.09 "HgN/A
4:00 AM63 °FLight rain. Partly cloudy.6 mph83%30.09 "HgN/A
Weather by CustomWeather, © 2014

See weather overviewHow to use our weather pages